DW1088 Weather Reports


time (UTC)temp
F
wind
direction
speed
knots
gust
knots
rain 1hr
in
rain 24hr
in
rain mn
in
humidity
%
barometer
mb
20260505004338 58 53 1.7 4.3 0.00 0.00 0.00 55 1010.2
20260505003835 57 59 1.7 3.5 0.00 0.00 0.00 53 1010.2
20260505003333 57 33 1.7 2.6 0.00 0.00 0.00 58 1010.1
20260505002828 57 34 1.7 2.6 0.00 0.00 0.00 57 1010.2
20260505002325 57 118 0.9 1.7 0.00 0.00 0.00 59 1010.0
20260505001824 57 180 0.0 1.7 0.00 0.00 0.00 59 1010.0
20260505001320 57 306 0.0 4.3 0.00 0.00 0.00 59 1010.1
20260505000818 57 249 2.6 7.8 0.00 0.00 0.00 58 1010.3
20260505000316 57 252 2.6 6.1 0.02 0.00 0.00 59 1010.3
20260504235812 58 300 2.6 2.6 0.02 0.00 0.00 56 1010.1
20260504235309 58 109 0.9 5.2 0.00 0.00 0.00 55 1010.1
20260504234806 57 247 2.6 6.1 0.00 0.00 0.00 59 1010.3
20260504234304 57 275 1.7 9.6 0.00 0.00 0.00 61 1010.2
20260504233759 59 248 4.3 7.8 0.00 0.00 0.00 52 1010.0
20260504233255 61 232 2.6 7.8 0.00 0.00 0.00 45 1010.0
20260504232752 61 218 3.5 4.3 0.00 0.00 0.00 42 1010.0
20260504232249 63 234 2.6 5.2 0.00 0.00 0.00 37 1010.0
20260504231746 63 248 1.7 5.2 0.00 0.00 0.00 37 1009.6
20260504231243 63 249 3.5 5.2 0.00 0.00 0.00 37 1009.3
20260504230738 63 231 0.0 2.6 0.00 0.00 0.00 38 1009.0
20260504230237 63 235 0.0 2.6 0.00 0.00 0.00 40 1009.0
20260504225736 64 350 0.0 3.5 0.00 0.00 0.00 39 1008.5
20260504225231 64 217 0.0 2.6 0.00 0.00 0.00 35 1008.5
20260504224729 65 300 0.0 2.6 0.00 0.00 0.00 35 1008.7
20260504224226 65 253 0.9 2.6 0.00 0.00 0.00 35 1008.6
20260504223722 65 82 1.7 3.5 0.00 0.00 0.00 35 1008.7
20260504223218 65 6 1.7 5.2 0.00 0.00 0.00 34 1008.7
20260504222715 66 242 1.7 2.6 0.00 0.00 0.00 34 1008.7
20260504222212 66 316 0.0 3.5 0.00 0.00 0.00 34 1008.5
20260504221709 66 88 3.5 4.3 0.00 0.00 0.00 33 1008.7
20260504221206 66 271 0.0 2.6 0.00 0.00 0.00 33 1008.7
20260504220703 67 91 1.7 3.5 0.00 0.00 0.00 33 1008.6
20260504220200 67 194 2.6 2.6 0.00 0.00 0.00 33 1008.7
20260504215656 66 51 0.9 5.2 0.00 0.00 0.00 33 1009.1
20260504215154 67 138 1.7 4.3 0.00 0.00 0.00 34 1009.1
20260504214649 66 264 1.7 2.6 0.00 0.00 0.00 34 1009.3
20260504214146 65 332 1.7 3.5 0.00 0.00 0.00 35 1009.5
20260504213643 65 291 2.6 4.3 0.00 0.00 0.00 35 1009.6
20260504213139 65 263 2.6 6.1 0.00 0.00 0.00 35 1009.6
20260504212636 64 329 1.7 8.7 0.00 0.00 0.00 34 1009.6
20260504212133 65 257 1.7 5.2 0.00 0.00 0.00 33 1009.6
20260504211631 66 10 1.7 5.2 0.00 0.00 0.00 32 1009.8
20260504211126 66 83 1.7 6.1 0.00 0.00 0.00 31 1009.5
20260504210625 66 39 1.7 5.2 0.00 0.00 0.00 32 1009.6
20260504210120 66 66 2.6 6.1 0.00 0.00 0.00 31 1009.1
20260504205618 67 134 2.6 5.2 0.00 0.00 0.00 31 1009.1
20260504205116 68 17 5.2 9.6 0.00 0.00 0.00 30 1008.8
20260504204614 69 136 3.5 10.4 0.00 0.00 0.00 29 1008.7
20260504204113 70 42 5.2 10.4 0.00 0.00 0.00 28 1008.7
20260504203611 70 45 2.6 12.2 0.00 0.00 0.00 29 1008.6
20260504203108 70 44 7.0 12.2 0.00 0.00 0.00 28 1008.8
20260504202603 70 75 4.3 14.8 0.00 0.00 0.00 28 1008.6
20260504202100 71 209 2.6 8.7 0.00 0.00 0.00 28 1009.0
20260504201556 71 29 4.3 13.0 0.00 0.00 0.00 27 1008.8
20260504201055 70 352 5.2 13.0 0.00 0.00 0.00 27 1008.7
20260504200550 69 321 2.6 7.0 0.00 0.00 0.00 28 1009.0
20260504200048 69 289 3.5 4.3 0.00 0.00 0.00 26 1008.6
20260504195544 68 295 5.2 10.4 0.00 0.00 0.00 27 1008.6
20260504195040 68 357 5.2 7.0 0.00 0.00 0.00 28 1008.6
20260504194537 69 70 5.2 12.2 0.00 0.00 0.00 28 1008.5
20260504194032 70 65 3.5 9.6 0.00 0.00 0.00 25 1008.4
20260504193529 70 82 4.3 6.1 0.00 0.00 0.00 23 1008.1
20260504193028 71 72 2.6 7.0 0.00 0.00 0.00 23 1008.0
20260504192526 72 242 1.7 12.2 0.00 0.00 0.00 23 1008.3
20260504192024 72 286 1.7 16.5 0.00 0.00 0.00 24 1007.9
20260504191521 73 81 1.7 8.7 0.00 0.00 0.00 22 1008.0
20260504191017 73 233 3.5 8.7 0.00 0.00 0.00 21 1008.0
20260504190514 72 247 6.1 15.6 0.00 0.00 0.00 25 1007.8
20260504190010 72 244 3.5 12.2 0.00 0.00 0.00 25 1008.0
20260504185507 72 249 3.5 11.3 0.00 0.00 0.00 25 1008.0
20260504185003 72 242 4.3 10.4 0.00 0.00 0.00 24 1007.7
20260504184459 72 262 8.7 11.3 0.00 0.00 0.00 24 1007.8
20260504183954 72 253 2.6 7.0 0.00 0.00 0.00 26 1007.9
20260504183452 72 328 1.7 14.8 0.00 0.00 0.00 25 1007.9
20260504182950 72 225 0.0 7.8 0.00 0.00 0.00 25 1008.0
20260504182446 72 276 7.8 11.3 0.00 0.00 0.00 25 1008.3
20260504181944 71 245 3.5 11.3 0.00 0.00 0.00 25 1008.0
20260504181441 71 253 8.7 13.0 0.00 0.00 0.00 26 1008.3
20260504180939 71 250 7.8 13.9 0.00 0.00 0.00 25 1008.1
20260504180438 71 268 8.7 13.0 0.00 0.00 0.00 25 1008.1
20260504175936 70 263 7.0 12.2 0.00 0.00 0.00 25 1008.1
20260504175432 71 258 8.7 14.8 0.00 0.00 0.00 25 1008.1
20260504174930 71 249 5.2 12.2 0.00 0.00 0.00 26 1008.4
20260504174428 71 239 4.3 12.2 0.00 0.00 0.00 25 1008.4
20260504173925 71 229 5.2 10.4 0.00 0.00 0.00 24 1008.7
20260504173421 71 244 7.0 12.2 0.00 0.00 0.00 25 1008.4
20260504172919 71 240 4.3 13.0 0.00 0.00 0.00 24 1008.4
20260504172414 71 262 7.0 11.3 0.00 0.00 0.00 25 1008.7
20260504171911 71 257 5.2 8.7 0.00 0.00 0.00 24 1008.8
20260504171408 71 255 5.2 12.2 0.00 0.00 0.00 24 1008.6
20260504170905 70 260 4.3 11.3 0.00 0.00 0.00 24 1008.8
20260504170402 70 235 3.5 7.8 0.00 0.00 0.00 25 1008.7
20260504160320 65 224 2.6 2.6 0.00 0.00 0.00 30 1009.1
20260504150745 58 195 2.6 2.6 0.00 0.00 0.00 36 1009.2
20260504150242 57 244 0.9 2.6 0.00 0.00 0.00 39 1009.4
20260504141212 49 250 0.0 2.6 0.00 0.00 0.00 50 1009.8
20260504140708 50 194 1.7 1.7 0.00 0.00 0.00 50 1009.6
20260504140203 51 122 1.7 1.7 0.00 0.00 0.00 47 1009.5
20260504130632 46 132 0.0 1.7 0.00 0.00 0.00 53 1009.6
20260504130129 45 251 0.9 1.7 0.00 0.00 0.00 54 1009.6
20260504110520 42 249 0.0 0.9 0.00 0.00 0.00 62 1010.0
20260504100436 46 239 1.7 2.6 0.00 0.00 0.00 54 1010.1
20260504081830 52 57 2.6 4.3 0.00 0.00 0.00 44 1010.8
20260504081326 52 54 3.5 4.3 0.00 0.00 0.00 44 1010.6
20260504080822 51 59 2.6 5.2 0.00 0.00 0.00 46 1011.0
20260504080320 51 147 0.9 3.5 0.00 0.00 0.00 46 1010.9
20260504070246 52 28 1.7 5.2 0.00 0.00 0.00 45 1011.3
20260504060207 52 10 0.9 2.6 0.00 0.00 0.00 42 1011.7
20260504050635 55 251 2.6 5.2 0.00 0.00 0.00 40 1011.7
20260504050132 55 224 3.5 5.2 0.00 0.00 0.00 39 1011.6
20260504045629 56 74 4.3 7.0 0.00 0.00 0.00 38 1011.3
20260504045123 56 67 5.2 5.2 0.00 0.00 0.00 38 1011.3
20260504044622 57 54 3.5 7.0 0.00 0.00 0.00 36 1011.1
20260504044118 57 85 3.5 7.8 0.00 0.00 0.00 36 1011.3
20260504043615 58 52 2.6 9.6 0.00 0.00 0.00 35 1011.4
20260504043113 59 78 4.3 12.2 0.00 0.00 0.00 34 1011.0
20260504042610 59 68 7.0 13.0 0.00 0.00 0.00 34 1011.6
20260504042107 59 53 5.2 12.2 0.00 0.00 0.00 34 1011.5
20260504041602 59 84 4.3 10.4 0.00 0.00 0.00 34 1011.4
20260504041059 60 58 3.5 13.0 0.00 0.00 0.00 32 1011.7
20260504040556 60 58 7.0 10.4 0.00 0.00 0.00 32 1011.7
20260504040053 61 66 6.1 7.0 0.00 0.00 0.00 30 1011.4
20260504035549 62 45 6.1 9.6 0.00 0.00 0.00 29 1011.4
20260504035046 63 18 5.2 6.1 0.00 0.00 0.00 27 1011.5
20260504034544 62 25 4.3 6.1 0.00 0.00 0.00 28 1011.6
20260504034040 62 58 2.6 4.3 0.00 0.00 0.00 28 1011.5
20260504033538 61 69 1.7 4.3 0.00 0.00 0.00 31 1011.5
20260504033035 62 11 0.0 1.7 0.00 0.00 0.00 30 1011.1
20260504032532 62 269 0.0 0.0 0.00 0.00 0.00 29 1010.8
20260504032029 62 235 0.0 0.0 0.00 0.00 0.00 29 1011.0
20260504031526 62 235 0.0 1.7 0.00 0.00 0.00 29 1010.9
20260504031022 61 103 0.0 0.0 0.00 0.00 0.00 30 1010.9
20260504030520 61 37 0.0 0.9 0.00 0.00 0.00 30 1010.9
20260504030016 61 89 0.0 0.0 0.00 0.00 0.00 30 1010.9
20260504025513 61 6 0.0 0.0 0.00 0.00 0.00 30 1011.0
20260504025009 62 130 0.0 0.0 0.00 0.00 0.00 30 1010.9
20260504024507 63 129 0.0 0.0 0.00 0.00 0.00 29 1010.8
20260504024004 63 240 0.0 0.9 0.00 0.00 0.00 28 1010.9
20260504023500 64 154 0.0 0.9 0.00 0.00 0.00 28 1010.8
20260504022956 64 229 0.0 1.7 0.00 0.00 0.00 28 1010.9
20260504022452 64 350 0.0 1.7 0.00 0.00 0.00 27 1011.0
20260504021949 65 186 1.7 1.7 0.00 0.00 0.00 27 1010.9
20260504021446 65 203 1.7 1.7 0.00 0.00 0.00 26 1010.9
20260504020943 66 237 0.9 1.7 0.00 0.00 0.00 26 1010.8
20260504020440 66 258 2.6 3.5 0.00 0.00 0.00 26 1010.8
20260504015937 67 230 0.9 3.5 0.00 0.00 0.00 26 1010.7
20260504015432 67 245 1.7 3.5 0.00 0.00 0.00 25 1010.8
20260504014928 67 246 2.6 3.5 0.00 0.00 0.00 25 1010.7
20260504014425 67 245 2.6 4.3 0.00 0.00 0.00 24 1010.8
20260504013922 68 239 0.9 3.5 0.00 0.00 0.00 25 1010.8
20260504013421 68 257 3.5 5.2 0.00 0.00 0.00 23 1011.1
20260504012916 68 202 0.0 6.1 0.00 0.00 0.00 23 1010.8
20260504012414 68 206 1.7 2.6 0.00 0.00 0.00 23 1010.9
20260504011911 69 206 2.6 2.6 0.00 0.00 0.00 23 1010.9
20260504011408 69 277 1.7 2.6 0.00 0.00 0.00 23 1010.8
20260504010904 68 252 0.0 3.5 0.00 0.00 0.00 23 1010.8
20260504010400 68 219 2.6 2.6 0.00 0.00 0.00 23 1010.7
20260504005856 69 213 3.5 4.3 0.00 0.00 0.00 22 1010.8
20260504005353 68 223 2.6 3.5 0.00 0.00 0.00 22 1010.7
20260504004851 69 225 1.7 2.6 0.00 0.00 0.00 23 1010.9